Time,TemperatureF,DewpointF,PressureIn,WindDirection,WindDirectionDegrees,WindSpeedMPH,WindSpeedGustMPH,Humidity,HourlyPrecipIn,Conditions,Clouds,dailyrainin,SoftwareType,DateUTC
2013-02-21 00:02:00,73.0,70.0,30.01,ENE,68,0.0,-999.0,91,-99.99,,,-99.99,,2013-02-21 05:02:00,
2013-02-21 00:12:00,73.0,70.0,30.01,ENE,68,0.0,-999.0,91,-99.99,,,-99.99,,2013-02-21 05:12:00,
2013-02-21 00:22:00,73.0,70.0,30.01,East,84,2.0,-999.0,91,-99.99,,,-99.99,,2013-02-21 05:22:00,
2013-02-21 00:35:00,73.0,70.0,30.01,ENE,67,5.0,-999.0,90,-99.99,,,-99.99,,2013-02-21 05:35:00,
2013-02-21 00:45:00,73.0,70.0,30.01,ENE,67,5.0,-999.0,90,-99.99,,,-99.99,,2013-02-21 05:45:00,
2013-02-21 01:00:00,73.0,70.0,30.00,ENE,75,3.0,-999.0,90,-99.99,,,-99.99,,2013-02-21 06:00:00,
2013-02-21 01:01:00,73.0,70.0,30.00,ENE,71,4.0,-999.0,90,-99.99,,,-99.99,,2013-02-21 06:01:00,
2013-02-21 01:11:00,73.0,70.0,30.00,ENE,71,4.0,-999.0,90,-99.99,,,-99.99,,2013-02-21 06:11:00,
2013-02-21 01:21:00,73.0,70.0,30.00,East,91,4.0,-999.0,90,-99.99,,,-99.99,,2013-02-21 06:21:00,
2013-02-21 01:31:00,73.0,70.0,30.00,East,83,4.0,-999.0,90,-99.99,,,-99.99,,2013-02-21 06:31:00,
2013-02-21 01:41:00,73.0,70.0,30.00,East,83,4.0,-999.0,90,-99.99,,,-99.99,,2013-02-21 06:41:00,
2013-02-21 01:51:00,73.0,70.0,29.99,ENE,67,4.0,-999.0,89,-99.99,,,-99.99,,2013-02-21 06:51:00,
2013-02-21 02:01:00,73.0,70.0,29.99,East,92,3.0,-999.0,89,-99.99,,,-99.99,,2013-02-21 07:01:00,
2013-02-21 02:11:00,73.0,69.0,29.98,ENE,76,3.0,-999.0,88,-99.99,,,-99.99,,2013-02-21 07:11:00,
2013-02-21 02:21:00,73.0,69.0,29.98,ENE,76,3.0,-999.0,88,-99.99,,,-99.99,,2013-02-21 07:21:00,
2013-02-21 02:32:00,73.0,69.0,29.98,ENE,62,2.0,-999.0,88,-99.99,,,-99.99,,2013-02-21 07:32:00,
2013-02-21 02:42:00,73.0,69.0,29.97,East,79,5.0,-999.0,87,-99.99,,,-99.99,,2013-02-21 07:42:00,
2013-02-21 02:52:00,73.0,69.0,29.97,East,79,5.0,-999.0,87,-99.99,,,-99.99,,2013-02-21 07:52:00,
2013-02-21 03:01:00,73.0,69.0,29.97,East,89,2.0,-999.0,87,-99.99,,,-99.99,,2013-02-21 08:01:00,
2013-02-21 03:11:00,73.0,68.0,29.96,ESE,111,3.0,-999.0,85,-99.99,,,-99.99,,2013-02-21 08:11:00,
2013-02-21 03:21:00,73.0,68.0,29.96,ESE,111,3.0,-999.0,85,-99.99,,,-99.99,,2013-02-21 08:21:00,
2013-02-21 03:32:00,73.0,68.0,29.96,ENE,68,5.0,-999.0,85,-99.99,,,-99.99,,2013-02-21 08:32:00,
2013-02-21 03:42:00,73.0,68.0,29.96,ENE,68,5.0,-999.0,85,-99.99,,,-99.99,,2013-02-21 08:42:00,
2013-02-21 03:52:00,74.0,69.0,29.95,ESE,112,3.0,-999.0,85,-99.99,,,-99.99,,2013-02-21 08:52:00,
2013-02-21 04:01:00,74.0,69.0,29.96,East,97,3.0,-999.0,85,-99.99,,,-99.99,,2013-02-21 09:01:00,
2013-02-21 04:11:00,74.0,69.0,29.96,East,97,3.0,-999.0,85,-99.99,,,-99.99,,2013-02-21 09:11:00,
2013-02-21 04:22:00,73.0,68.0,29.96,ESE,110,4.0,-999.0,85,-99.99,,,-99.99,,2013-02-21 09:22:00,
2013-02-21 04:32:00,73.0,68.0,29.96,ESE,110,4.0,-999.0,85,-99.99,,,-99.99,,2013-02-21 09:32:00,
2013-02-21 04:42:00,73.0,68.0,29.96,ESE,110,4.0,-999.0,85,-99.99,,,-99.99,,2013-02-21 09:42:00,
2013-02-21 04:52:00,74.0,69.0,29.95,East,94,4.0,-999.0,84,-99.99,,,-99.99,,2013-02-21 09:52:00,
2013-02-21 05:01:00,74.0,69.0,29.96,East,92,2.0,-999.0,84,-99.99,,,-99.99,,2013-02-21 10:01:00,
2013-02-21 05:11:00,74.0,69.0,29.96,East,92,2.0,-999.0,84,-99.99,,,-99.99,,2013-02-21 10:11:00,
2013-02-21 05:21:00,74.0,68.0,29.96,East,87,5.0,-999.0,81,-99.99,,,-99.99,,2013-02-21 10:21:00,
2013-02-21 05:31:00,74.0,68.0,29.96,East,96,3.0,-999.0,81,-99.99,,,-99.99,,2013-02-21 10:31:00,
2013-02-21 05:41:00,74.0,68.0,29.96,East,96,3.0,-999.0,81,-99.99,,,-99.99,,2013-02-21 10:41:00,
2013-02-21 05:51:00,74.0,68.0,29.96,East,84,4.0,-999.0,81,-99.99,,,-99.99,,2013-02-21 10:51:00,
2013-02-21 06:01:00,74.0,68.0,29.96,East,99,6.0,-999.0,81,-99.99,,,-99.99,,2013-02-21 11:01:00,
2013-02-21 06:11:00,74.0,68.0,29.96,East,99,6.0,-999.0,81,-99.99,,,-99.99,,2013-02-21 11:11:00,
2013-02-21 06:21:00,74.0,68.0,29.97,ESE,112,8.0,-999.0,81,-99.99,,,-99.99,,2013-02-21 11:21:00,
2013-02-21 06:31:00,74.0,68.0,29.98,ESE,119,7.0,-999.0,81,-99.99,,,-99.99,,2013-02-21 11:31:00,
2013-02-21 06:41:00,74.0,68.0,29.98,ESE,119,7.0,-999.0,81,-99.99,,,-99.99,,2013-02-21 11:41:00,
2013-02-21 06:52:00,74.0,67.0,29.99,East,100,8.0,-999.0,80,-99.99,,,-99.99,,2013-02-21 11:52:00,
2013-02-21 07:01:00,74.0,67.0,29.99,ESE,115,6.0,-999.0,80,-99.99,,,-99.99,,2013-02-21 12:01:00,
2013-02-21 07:11:00,74.0,67.0,29.99,ESE,115,6.0,-999.0,80,-99.99,,,-99.99,,2013-02-21 12:11:00,
2013-02-21 07:21:00,74.0,67.0,29.99,ESE,117,7.0,-999.0,79,-99.99,,,-99.99,,2013-02-21 12:21:00,
2013-02-21 07:32:00,74.0,67.0,30.00,SE,128,5.0,-999.0,80,-99.99,,,-99.99,,2013-02-21 12:32:00,
2013-02-21 07:42:00,74.0,67.0,30.01,East,100,9.0,-999.0,79,-99.99,,,-99.99,,2013-02-21 12:42:00,
2013-02-21 07:53:00,74.0,67.0,30.01,East,100,9.0,-999.0,79,-99.99,,,-99.99,,2013-02-21 12:53:00,
2013-02-21 08:02:00,75.0,68.0,30.01,ESE,107,7.0,-999.0,79,-99.99,,,-99.99,,2013-02-21 13:02:00,
2013-02-21 08:12:00,75.0,68.0,30.01,ESE,107,7.0,-999.0,79,-99.99,,,-99.99,,2013-02-21 13:12:00,
2013-02-21 08:22:00,75.0,68.0,30.02,ESE,115,6.0,-999.0,78,-99.99,,,-99.99,,2013-02-21 13:22:00,
2013-02-21 08:32:00,75.0,68.0,30.01,ESE,108,4.0,-999.0,78,-99.99,,,-99.99,,2013-02-21 13:32:00,
2013-02-21 08:42:00,75.0,68.0,30.01,ESE,108,4.0,-999.0,78,-99.99,,,-99.99,,2013-02-21 13:42:00,
2013-02-21 08:52:00,76.0,68.0,30.02,East,98,6.0,-999.0,77,-99.99,,,-99.99,,2013-02-21 13:52:00,
2013-02-21 09:02:00,76.0,68.0,30.02,SE,141,7.0,-999.0,77,-99.99,,,-99.99,,2013-02-21 14:02:00,
2013-02-21 09:11:00,76.0,68.0,30.02,SE,141,7.0,-999.0,77,-99.99,,,-99.99,,2013-02-21 14:11:00,
2013-02-21 09:22:00,76.0,68.0,30.03,ESE,109,8.0,-999.0,76,-99.99,,,-99.99,,2013-02-21 14:22:00,
2013-02-21 09:32:00,76.0,68.0,30.03,SE,143,9.0,-999.0,76,-99.99,,,-99.99,,2013-02-21 14:32:00,
2013-02-21 09:42:00,76.0,68.0,30.03,SE,143,9.0,-999.0,76,-99.99,,,-99.99,,2013-02-21 14:42:00,
2013-02-21 09:52:00,77.0,69.0,30.04,ESE,116,8.0,-999.0,77,-99.99,,,-99.99,,2013-02-21 14:52:00,
2013-02-21 10:02:00,77.0,69.0,30.04,ESE,120,7.0,-999.0,76,-99.99,,,-99.99,,2013-02-21 15:02:00,
2013-02-21 10:12:00,77.0,69.0,30.04,ESE,120,7.0,-999.0,76,-99.99,,,-99.99,,2013-02-21 15:12:00,
2013-02-21 10:21:00,77.0,69.0,30.04,ESE,119,7.0,-999.0,77,-99.99,,,-99.99,,2013-02-21 15:21:00,
2013-02-21 10:32:00,77.0,69.0,30.04,East,98,8.0,-999.0,77,-99.99,,,-99.99,,2013-02-21 15:32:00,
2013-02-21 10:42:00,77.0,69.0,30.04,East,98,8.0,-999.0,77,-99.99,,,-99.99,,2013-02-21 15:42:00,
2013-02-21 10:52:00,77.0,69.0,30.04,East,96,8.0,-999.0,77,-99.99,,,-99.99,,2013-02-21 15:52:00,
2013-02-21 11:01:00,77.0,69.0,30.04,East,91,9.0,-999.0,77,-99.99,,,-99.99,,2013-02-21 16:01:00,
2013-02-21 11:12:00,77.0,70.0,30.04,ESE,111,7.0,-999.0,78,-99.99,,,-99.99,,2013-02-21 16:12:00,
2013-02-21 11:22:00,77.0,70.0,30.04,ESE,111,7.0,-999.0,78,-99.99,,,-99.99,,2013-02-21 16:22:00,
2013-02-21 11:32:00,77.0,69.0,30.03,ENE,63,6.0,-999.0,77,-99.99,,,-99.99,,2013-02-21 16:32:00,
2013-02-21 11:42:00,77.0,69.0,30.03,ESE,111,10.0,-999.0,77,-99.99,,,-99.99,,2013-02-21 16:42:00,
2013-02-21 11:52:00,77.0,69.0,30.03,ESE,111,10.0,-999.0,77,-99.99,,,-99.99,,2013-02-21 16:52:00,
2013-02-21 12:01:00,77.0,69.0,30.02,SE,137,12.0,-999.0,76,-99.99,,,-99.99,,2013-02-21 17:01:00,
2013-02-21 12:11:00,78.0,69.0,30.02,ESE,103,9.0,-999.0,75,-99.99,,,-99.99,,2013-02-21 17:11:00,
2013-02-21 12:21:00,78.0,69.0,30.02,ESE,103,9.0,-999.0,75,-99.99,,,-99.99,,2013-02-21 17:21:00,
2013-02-21 12:32:00,78.0,69.0,30.02,East,98,9.0,-999.0,75,-99.99,,,-99.99,,2013-02-21 17:32:00,
2013-02-21 12:42:00,78.0,69.0,30.02,East,98,9.0,-999.0,75,-99.99,,,-99.99,,2013-02-21 17:42:00,
2013-02-21 12:52:00,78.0,69.0,30.01,SSE,158,9.0,-999.0,74,-99.99,,,-99.99,,2013-02-21 17:52:00,
2013-02-21 13:02:00,78.0,69.0,30.02,East,101,8.0,-999.0,73,-99.99,,,-99.99,,2013-02-21 18:02:00,
2013-02-21 13:12:00,78.0,69.0,30.02,East,101,8.0,-999.0,73,-99.99,,,-99.99,,2013-02-21 18:12:00,
2013-02-21 13:22:00,78.0,69.0,30.01,East,96,7.0,-999.0,74,-99.99,,,-99.99,,2013-02-21 18:22:00,
2013-02-21 13:32:00,78.0,69.0,30.01,ESE,117,7.0,-999.0,75,-99.99,,,-99.99,,2013-02-21 18:32:00,
2013-02-21 13:42:00,78.0,69.0,30.01,ESE,117,7.0,-999.0,75,-99.99,,,-99.99,,2013-02-21 18:42:00,
2013-02-21 13:52:00,79.0,70.0,30.00,ESE,123,6.0,-999.0,74,-99.99,,,-99.99,,2013-02-21 18:52:00,
2013-02-21 14:01:00,78.0,69.0,30.00,SE,134,8.0,-999.0,74,-99.99,,,-99.99,,2013-02-21 19:01:00,
2013-02-21 14:12:00,78.0,69.0,30.00,SE,134,8.0,-999.0,74,-99.99,,,-99.99,,2013-02-21 19:12:00,
2013-02-21 14:21:00,78.0,69.0,29.99,SE,130,6.0,-999.0,73,-99.99,,,-99.99,,2013-02-21 19:21:00,
2013-02-21 14:32:00,78.0,68.0,29.99,East,99,6.0,-999.0,72,-99.99,,,-99.99,,2013-02-21 19:32:00,
2013-02-21 14:42:00,78.0,68.0,29.99,East,99,6.0,-999.0,72,-99.99,,,-99.99,,2013-02-21 19:42:00,
2013-02-21 14:52:00,78.0,68.0,29.99,ESE,109,7.0,-999.0,72,-99.99,,,-99.99,,2013-02-21 19:52:00,
2013-02-21 15:01:00,78.0,68.0,29.98,ESE,117,7.0,-999.0,72,-99.99,,,-99.99,,2013-02-21 20:01:00,
2013-02-21 15:11:00,79.0,70.0,29.98,SE,141,5.0,-999.0,73,-99.99,,,-99.99,,2013-02-21 20:11:00,
2013-02-21 15:21:00,79.0,70.0,29.98,SE,141,5.0,-999.0,73,-99.99,,,-99.99,,2013-02-21 20:21:00,
2013-02-21 15:32:00,79.0,70.0,29.97,ESE,115,6.0,-999.0,73,-99.99,,,-99.99,,2013-02-21 20:32:00,
2013-02-21 15:42:00,79.0,70.0,29.97,ESE,115,6.0,-999.0,73,-99.99,,,-99.99,,2013-02-21 20:42:00,
2013-02-21 15:53:00,78.0,69.0,29.97,East,97,7.0,-999.0,74,-99.99,,,-99.99,,2013-02-21 20:53:00,
2013-02-21 16:02:00,78.0,69.0,29.98,East,94,8.0,-999.0,74,-99.99,,,-99.99,,2013-02-21 21:02:00,
2013-02-21 16:12:00,77.0,69.0,29.96,East,79,8.0,-999.0,76,-99.99,,,-99.99,,2013-02-21 21:12:00,
2013-02-21 16:22:00,77.0,69.0,29.96,East,79,8.0,-999.0,76,-99.99,,,-99.99,,2013-02-21 21:22:00,
2013-02-21 16:32:00,77.0,69.0,29.96,East,93,8.0,-999.0,77,-99.99,,,-99.99,,2013-02-21 21:32:00,
2013-02-21 16:42:00,77.0,69.0,29.97,ESE,108,6.0,-999.0,77,-99.99,,,-99.99,,2013-02-21 21:42:00,
2013-02-21 16:52:00,77.0,69.0,29.97,ESE,108,6.0,-999.0,77,-99.99,,,-99.99,,2013-02-21 21:52:00,
2013-02-21 17:01:00,77.0,69.0,29.97,ESE,111,8.0,-999.0,77,-99.99,,,-99.99,,2013-02-21 22:01:00,
2013-02-21 17:11:00,77.0,69.0,29.97,ESE,111,8.0,-999.0,77,-99.99,,,-99.99,,2013-02-21 22:11:00,
2013-02-21 17:21:00,77.0,70.0,29.97,East,94,4.0,-999.0,78,-99.99,,,-99.99,,2013-02-21 22:21:00,
2013-02-21 17:32:00,77.0,70.0,29.97,East,93,2.0,-999.0,78,-99.99,,,-99.99,,2013-02-21 22:32:00,
2013-02-21 17:42:00,77.0,70.0,29.97,East,80,2.0,-999.0,78,-99.99,,,-99.99,,2013-02-21 22:42:00,
2013-02-21 17:52:00,77.0,70.0,29.97,East,80,2.0,-999.0,78,-99.99,,,-99.99,,2013-02-21 22:52:00,
2013-02-21 18:01:00,77.0,70.0,29.97,East,80,1.0,-999.0,78,-99.99,,,-99.99,,2013-02-21 23:01:00,
2013-02-21 18:11:00,77.0,70.0,29.97,East,80,1.0,-999.0,78,-99.99,,,-99.99,,2013-02-21 23:11:00,
2013-02-21 18:21:00,76.0,69.0,29.98,ESE,103,1.0,-999.0,80,-99.99,,,-99.99,,2013-02-21 23:21:00,
2013-02-21 18:32:00,76.0,70.0,29.98,East,80,2.0,-999.0,81,-99.99,,,-99.99,,2013-02-21 23:32:00,
2013-02-21 18:42:00,76.0,70.0,29.98,East,80,2.0,-999.0,81,-99.99,,,-99.99,,2013-02-21 23:42:00,
2013-02-21 18:52:00,75.0,69.0,29.98,ENE,78,0.0,-999.0,83,-99.99,,,-99.99,,2013-02-21 23:52:00,
2013-02-21 19:01:00,75.0,70.0,29.98,East,82,1.0,-999.0,84,-99.99,,,-99.99,,2013-02-22 00:01:00,
2013-02-21 19:11:00,75.0,70.0,29.98,East,82,1.0,-999.0,84,-99.99,,,-99.99,,2013-02-22 00:11:00,
2013-02-21 19:22:00,75.0,70.0,29.98,ESE,111,4.0,-999.0,84,-99.99,,,-99.99,,2013-02-22 00:22:00,
2013-02-21 19:32:00,75.0,70.0,29.98,East,83,2.0,-999.0,85,-99.99,,,-99.99,,2013-02-22 00:32:00,
2013-02-21 19:42:00,75.0,70.0,29.98,East,83,2.0,-999.0,85,-99.99,,,-99.99,,2013-02-22 00:42:00,
2013-02-21 19:52:00,75.0,70.0,29.99,East,88,1.0,-999.0,85,-99.99,,,-99.99,,2013-02-22 00:52:00,
2013-02-21 20:01:00,75.0,70.0,29.98,ESE,103,1.0,-999.0,85,-99.99,,,-99.99,,2013-02-22 01:01:00,
2013-02-21 20:11:00,75.0,70.0,29.98,ESE,103,1.0,-999.0,85,-99.99,,,-99.99,,2013-02-22 01:11:00,
2013-02-21 20:22:00,75.0,70.0,29.99,ENE,69,4.0,-999.0,85,-99.99,,,-99.99,,2013-02-22 01:22:00,
2013-02-21 20:32:00,75.0,70.0,29.99,East,95,5.0,-999.0,85,-99.99,,,-99.99,,2013-02-22 01:32:00,
2013-02-21 20:42:00,75.0,70.0,29.99,East,95,5.0,-999.0,85,-99.99,,,-99.99,,2013-02-22 01:42:00,
2013-02-21 20:52:00,75.0,70.0,29.99,ENE,74,2.0,-999.0,85,-99.99,,,-99.99,,2013-02-22 01:52:00,
2013-02-21 21:02:00,74.0,69.0,29.99,East,101,2.0,-999.0,85,-99.99,,,-99.99,,2013-02-22 02:02:00,
2013-02-21 21:11:00,74.0,69.0,29.99,East,101,2.0,-999.0,85,-99.99,,,-99.99,,2013-02-22 02:11:00,
2013-02-21 21:21:00,75.0,70.0,29.99,ESE,103,3.0,-999.0,85,-99.99,,,-99.99,,2013-02-22 02:21:00,
2013-02-21 21:32:00,74.0,69.0,29.99,East,100,4.0,-999.0,85,-99.99,,,-99.99,,2013-02-22 02:32:00,
2013-02-21 21:42:00,75.0,70.0,29.99,East,96,4.0,-999.0,84,-99.99,,,-99.99,,2013-02-22 02:42:00,
2013-02-21 21:52:00,75.0,70.0,29.99,East,96,4.0,-999.0,84,-99.99,,,-99.99,,2013-02-22 02:52:00,
2013-02-21 22:02:00,75.0,69.0,29.99,ENE,76,3.0,-999.0,83,-99.99,,,-99.99,,2013-02-22 03:02:00,
2013-02-21 22:11:00,75.0,69.0,29.99,ENE,76,3.0,-999.0,83,-99.99,,,-99.99,,2013-02-22 03:11:00,
2013-02-21 22:21:00,75.0,70.0,29.99,SE,126,5.0,-999.0,84,-99.99,,,-99.99,,2013-02-22 03:21:00,
2013-02-21 22:32:00,75.0,70.0,29.99,East,94,4.0,-999.0,84,-99.99,,,-99.99,,2013-02-22 03:32:00,
2013-02-21 22:42:00,75.0,70.0,29.99,East,94,4.0,-999.0,84,-99.99,,,-99.99,,2013-02-22 03:42:00,
2013-02-21 22:52:00,75.0,70.0,29.99,East,81,4.0,-999.0,84,-99.99,,,-99.99,,2013-02-22 03:52:00,
2013-02-21 23:02:00,75.0,70.0,29.99,East,89,3.0,-999.0,84,-99.99,,,-99.99,,2013-02-22 04:02:00,
2013-02-21 23:11:00,75.0,70.0,29.99,East,101,2.0,-999.0,85,-99.99,,,-99.99,,2013-02-22 04:11:00,
2013-02-21 23:21:00,75.0,70.0,29.99,East,101,2.0,-999.0,85,-99.99,,,-99.99,,2013-02-22 04:21:00,
2013-02-21 23:32:00,75.0,70.0,30.00,East,79,2.0,-999.0,85,-99.99,,,-99.99,,2013-02-22 04:32:00,
2013-02-21 23:42:00,75.0,70.0,30.00,East,79,2.0,-999.0,85,-99.99,,,-99.99,,2013-02-22 04:42:00,
2013-02-21 23:52:00,75.0,71.0,30.00,ENE,71,1.0,-999.0,86,-99.99,,,-99.99,,2013-02-22 04:52:00,